AV662 Weather Reports


time (UTC)temp
F
wind
direction
speed
knots
gust
knots
rain 1hr
in
rain 24hr
in
rain mn
in
humidity
%
barometer
mb
20260510065255 50 155 2.6 5.2 0.00 0.00 0.00 87 1011.7
20260510064753 50 151 2.6 5.2 0.00 0.00 0.00 86 1011.3
20260510064517 51 130 3.5 5.2 0.00 0.00 0.00 84 1011.3
20260510063751 51 86 2.6 6.1 0.00 0.00 0.00 83 1011.3
20260510063518 51 112 3.5 6.1 0.00 0.00 0.00 82 1011.3
20260510062750 51 74 2.6 5.2 0.00 0.00 0.00 83 1011.3
20260510062249 51 76 3.5 5.2 0.00 0.00 0.00 82 1011.3
20260510061748 51 126 2.6 7.8 0.00 0.00 0.00 81 1011.0
20260510061248 52 86 1.7 8.7 0.00 0.00 0.00 80 1011.0
20260510060745 52 57 3.5 8.7 0.00 0.00 0.00 80 1011.3
20260510060511 51 68 4.3 8.7 0.00 0.00 0.00 81 1011.0
20260510060008 51 77 5.2 9.6 0.00 0.00 0.00 81 1011.0
20260510055511 51 6 1.7 9.6 0.00 0.00 0.00 82 1011.0
20260510054745 51 81 1.7 9.6 0.00 0.00 0.00 83 1011.0
20260510054243 51 58 7.0 11.3 0.00 0.00 0.00 83 1011.0
20260510054006 52 347 2.6 11.3 0.00 0.00 0.00 84 1010.7
20260510053242 52 38 9.6 11.3 0.00 0.00 0.00 82 1010.7
20260510052742 53 94 3.5 9.6 0.00 0.00 0.00 81 1011.7
20260510052242 53 43 3.5 9.6 0.00 0.00 0.00 79 1011.7
20260510051736 53 32 4.3 9.6 0.00 0.00 0.00 79 1011.3
20260510051233 54 53 1.7 11.3 0.00 0.00 0.00 76 1011.3
20260510050732 54 49 5.2 12.2 0.00 0.00 0.00 75 1011.0
20260510050232 55 42 5.2 12.2 0.00 0.00 0.00 77 1010.7
20260510045731 55 22 5.2 14.8 0.00 0.00 0.00 78 1009.9
20260510045231 55 31 6.1 14.8 0.00 0.00 0.00 81 1009.5
20260510044731 56 354 4.3 11.3 0.00 0.00 0.00 81 1009.9
20260510044231 57 2 3.5 16.5 0.00 0.00 0.00 79 1009.5
20260510043730 59 301 4.3 10.4 0.00 0.00 0.00 78 1009.5
20260510043229 59 305 2.6 5.2 0.00 0.00 0.00 78 1009.2
20260510042728 59 195 0.9 1.7 0.00 0.00 0.00 78 1008.9
20260510042228 59 256 0.0 2.6 0.00 0.00 0.00 78 1008.5
20260510041726 59 24 0.0 4.3 0.00 0.00 0.00 79 1008.9
20260510041226 59 5 0.9 4.3 0.00 0.00 0.00 78 1008.5
20260510040724 59 341 2.6 5.2 0.00 0.00 0.00 77 1008.9
20260510040710 59 314 4.3 5.2 0.00 0.00 0.00 77 1008.5
20260510035723 59 300 4.3 5.2 0.00 0.00 0.00 78 1008.2
20260510035222 59 330 2.6 4.3 0.00 0.00 0.00 78 1008.2
20260510034721 59 292 3.5 4.3 0.00 0.00 0.00 78 1008.2
20260510034220 59 291 0.9 4.3 0.00 0.00 0.00 79 1008.2
20260510032718 59 180 1.7 7.0 0.00 0.00 0.00 79 1008.2
20260510032216 59 314 5.2 7.0 0.00 0.00 0.00 79 1008.2
20260510031701 59 315 3.5 5.2 0.00 0.00 0.00 79 1007.8
20260510030701 59 257 1.7 6.1 0.00 0.00 0.00 79 1007.8
20260510030201 59 333 2.6 6.1 0.00 0.00 0.00 78 1007.8
20260510030152 59 305 1.7 5.2 0.00 0.00 0.00 78 1008.2
20260510025201 60 244 3.5 5.2 0.00 0.00 0.00 78 1008.2
20260510024703 60 299 5.2 5.2 0.00 0.00 0.00 77 1008.2
20260510024201 60 309 4.3 5.2 0.00 0.00 0.00 77 1007.8
20260510023701 60 205 2.6 6.1 0.00 0.00 0.00 77 1007.8
20260510023201 60 324 3.5 6.1 0.00 0.00 0.00 76 1007.8
20260510022700 60 295 0.9 6.1 0.00 0.00 0.00 76 1007.8
20260510022201 60 335 2.6 7.8 0.00 0.00 0.00 75 1007.5
20260510021656 60 279 5.2 7.8 0.00 0.00 0.00 75 1007.8
20260510020204 59 303 3.5 7.8 0.00 0.00 0.00 79 1007.5
20260510015702 59 320 4.3 7.0 0.00 0.00 0.00 80 1007.8
20260510015200 59 329 3.5 7.0 0.00 0.00 0.00 80 1007.8
20260510014700 59 312 5.2 6.1 0.00 0.00 0.00 80 1007.8
20260510014200 59 301 2.6 7.8 0.00 0.00 0.00 80 1007.8
20260510013158 59 320 4.3 7.8 0.00 0.00 0.00 81 1007.5
20260510012657 59 296 3.5 7.0 0.00 0.00 0.00 82 1007.2
20260510012156 58 299 2.6 6.1 0.00 0.00 0.00 82 1007.5
20260510011655 59 327 3.5 8.7 0.00 0.00 0.00 82 1007.2
20260510010653 59 303 3.5 7.8 0.00 0.00 0.00 82 1007.2
20260510010153 59 311 2.6 7.8 0.00 0.00 0.00 82 1007.2
20260510005651 59 282 6.1 7.8 0.00 0.00 0.00 82 1007.2
20260510005150 59 296 5.2 7.8 0.00 0.00 0.00 83 1007.2
20260510004151 59 342 1.7 7.0 0.00 0.00 0.00 83 1007.2
20260510003648 59 282 3.5 8.7 0.00 0.00 0.00 84 1007.2
20260510003147 59 274 3.5 8.7 0.00 0.00 0.00 83 1007.2
20260510002646 59 290 6.1 10.4 0.00 0.00 0.00 83 1007.2
20260510002146 59 290 6.1 10.4 0.00 0.00 0.00 83 1006.8
20260510001644 59 293 2.6 7.8 0.00 0.00 0.00 85 1007.2
20260510001143 59 287 5.2 7.8 0.00 0.00 0.00 86 1007.2
20260510000643 58 288 4.3 9.6 0.00 0.00 0.00 87 1007.2
20260510000140 58 289 5.2 9.6 0.00 0.00 0.00 89 1007.2
20260509235630 58 249 3.5 7.0 0.00 0.00 0.00 91 1007.2
20260509235130 57 290 3.5 8.7 0.00 0.00 0.00 92 1006.8
20260509234629 57 277 7.0 8.7 0.00 0.00 0.00 93 1006.8
20260509234129 57 295 3.5 7.0 0.00 0.00 0.00 93 1007.2
20260509233628 56 231 2.6 7.0 0.00 0.00 0.00 94 1007.2
20260509233130 56 281 3.5 8.7 0.00 0.00 0.00 94 1006.5
20260509232632 56 284 2.6 8.7 0.00 0.00 0.00 94 1006.8
20260509232132 56 296 4.3 7.8 0.00 0.00 0.00 94 1006.8
20260509231631 56 305 4.3 7.0 0.00 0.00 0.00 94 1006.8
20260509231131 55 283 5.2 7.8 0.00 0.00 0.00 95 1007.2
20260509230633 55 281 2.6 8.7 0.00 0.00 0.00 95 1007.5
20260509230131 55 296 5.2 8.7 0.00 0.00 0.00 94 1007.2
20260509225129 54 298 4.3 15.6 0.00 0.00 0.00 94 1007.8
20260509224129 54 294 7.8 20.0 0.00 0.00 0.00 93 1007.5
20260509223127 56 333 12.2 29.5 0.00 0.00 0.00 86 1027.5
20260509222129 70 321 12.2 0.0 0.00 0.00 0.00 48 1029.6